Terminal Aerodrome Forecast
Issued by NWS

Home | Current Version | Previous Version | Text Only | Print | Product List | Glossary On
Versions: 1 2 3 4 5 6 7 8 9 10 11 12
000
FTUS45 KRIW 180500
TAFCOD
TAF
KCOD 180525Z 1806/1906 21006KT P6SM FEW120
     FM181700 15006KT P6SM SCT100
     FM190100 VRB06KT P6SM VCSH BKN100
      AMD LTD TO CLD VIS AND WIND=

USA.gov is the U.S. government's official web portal to all federal, state and local government web resources and services.